Starlink 31947

operational
NORAD ID: 59835 Int'l Des: 2024-097 Owner: SPXS Country: US Constellation: starlink
LEOCIRCULAR

About Starlink 31947

Description loading...

Live Position

Loading 3D Globe...

Upcoming Passes

Altitude History

Altitude vs Time

uPlot chart will show altitude changes over time

Two-Line Element Set

1 59835U 24097A 25305.62564575 -.00000355 00000-0 -34060-5 0 9990
2 59835 42.9988 277.3808 0000430 269.6980 90.3823 15.27567556 82334
Epoch: Nov 1, 2025 • Age: 6 hours

Current Status

Altitude 496.0 km
Velocity 7.62 km/s
Sub-Earth Point -42.88°S, 161.31°W
Launch Date May 23, 2024
Age 1.4 years
Type internet

Technical Details

Classification Payload
Mass 730.00 kg
Dry Mass 700.00 kg
Total Mass 730.00 kg
Length 0.30 m
Diameter 4.10 m
Span 29.00 m
Shape Box + pan
Manufacturer SPXS
Bus Type Starlink V2M
Phase Status In Orbit
Owner/State SPXS/US

Large Constellations

Loading constellations...